Date String (YYYY-MM-DD hh:mm:ss) UTC,Instrument flags,Ambient pressure (hPa),Sample flow (lpm),Bypass flow (lpm),Sample temperature (°C),Ambient temperature (°C),ASC tube jacket temperature (°C),LED temperature (°C),Box temperature (°C),Sample RH (%),Span deviation,Mass concentration (μg/m³),Mass concentration (μg/m³),Mass concentration (μg/m³)
DateTimeUTC,F1_M11,P_M11,Q1_M11,Q2_M11,T1_M11,T2_M11,T3_M11,T4_M11,T5_M11,U1_M11,ZSPAN_M11,X0_M11,X2_M11,X1_M11
2022-11-04 09:00:00,,0822.2,5.01,0.00,22.8,21.4,00.0,31.6,24.7,14.9,0000.0,0005.60,0004.05,0003.95
2022-11-04 09:01:00,,0822.2,5.01,0.00,22.8,21.4,00.0,31.6,24.7,14.8,0000.0,0005.10,0003.99,0003.90
2022-11-04 09:02:00,,0822.2,4.98,0.00,22.8,21.3,00.0,31.6,24.7,14.8,0000.0,0005.01,0003.94,0003.85
2022-11-04 09:03:00,,0822.2,5.02,0.00,22.8,21.3,00.0,31.5,24.7,14.8,0000.0,0004.89,0003.88,0003.81
2022-11-04 09:04:00,,0822.2,4.98,0.00,22.8,21.3,00.0,31.5,24.7,14.7,0000.0,0004.83,0003.83,0003.76
2022-11-04 09:05:00,,0822.2,5.00,0.00,22.7,21.3,00.0,31.5,24.7,14.7,0000.0,0004.74,0003.78,0003.71
2022-11-04 09:06:00,,0822.2,5.01,0.00,22.7,21.2,00.0,31.5,24.6,14.7,0000.0,0004.68,0003.74,0003.67
2022-11-04 09:07:00,,0822.2,5.00,0.00,22.7,21.2,00.0,31.5,24.6,14.7,0000.0,0004.62,0003.70,0003.64
2022-11-04 09:08:00,,0822.2,4.99,0.00,22.7,21.1,00.0,31.5,24.6,14.7,0000.0,0004.55,0003.66,0003.60
2022-11-04 09:09:00,,0822.2,5.01,0.00,22.7,21.1,00.0,31.5,24.6,14.7,0000.0,0004.53,0003.65,0003.57
2022-11-04 09:10:00,,0822.2,5.01,0.00,22.7,21.6,00.0,31.5,24.7,14.7,0000.0,0004.56,0003.65,0003.57
2022-11-04 09:11:00,,0822.3,5.00,0.00,22.8,22.3,00.0,31.5,24.9,14.7,0000.0,0004.56,0003.65,0003.55
2022-11-04 09:12:00,,0822.3,4.99,0.00,22.9,22.2,00.0,31.5,24.9,14.7,0000.0,0004.64,0003.67,0003.57
2022-11-04 09:13:00,,0822.2,4.99,0.00,22.8,21.9,00.0,31.5,24.8,14.7,0000.0,0004.81,0003.71,0003.60
2022-11-04 09:14:00,,0822.3,5.01,0.00,22.8,21.6,00.0,31.5,24.7,14.7,0000.0,0004.84,0003.74,0003.63
2022-11-04 09:15:00,,0822.3,5.00,0.00,22.8,21.4,00.0,31.5,24.7,14.8,0000.0,0004.92,0003.80,0003.69
2022-11-04 09:16:00,,0822.3,5.01,0.00,22.8,21.3,00.0,31.5,24.6,14.8,0000.0,0004.97,0003.83,0003.73
2022-11-04 09:17:00,,0822.3,5.00,0.00,22.8,21.2,00.0,31.5,24.6,14.8,0000.0,0005.01,0003.87,0003.77
2022-11-04 09:18:00,,0822.3,5.00,0.00,22.7,21.1,00.0,31.5,24.6,14.8,0000.0,0005.18,0003.94,0003.83
2022-11-04 09:19:00,,0822.4,5.00,0.00,22.7,21.1,00.0,31.5,24.6,14.9,0000.0,0005.34,0004.01,0003.88
2022-11-04 09:20:00,,0822.4,4.99,0.00,22.7,21.1,00.0,31.5,24.6,14.9,0000.0,0005.39,0004.05,0003.93
2022-11-04 09:21:00,,0822.4,5.00,0.00,22.7,21.0,00.0,31.5,24.6,14.9,0000.0,0005.49,0004.11,0003.98
2022-11-04 09:22:00,,0822.4,5.00,0.00,22.7,21.1,00.0,31.5,24.5,14.9,0000.0,0005.60,0004.17,0004.04
2022-11-04 09:23:00,,0822.4,5.00,0.00,22.7,21.1,00.0,31.5,24.5,15.0,0000.0,0005.63,0004.21,0004.09
2022-11-04 09:24:00,,0822.4,5.00,0.00,22.6,21.1,00.0,31.5,24.5,15.0,0000.0,0005.59,0004.24,0004.12
2022-11-04 09:25:00,,0822.4,4.99,0.00,22.6,21.1,00.0,31.5,24.5,15.0,0000.0,0005.59,0004.27,0004.15
2022-11-04 09:26:00,,0822.4,4.99,0.00,22.6,21.1,00.0,31.4,24.5,15.0,0000.0,0005.62,0004.28,0004.17
2022-11-04 09:27:00,,0822.4,5.00,0.00,22.6,21.1,00.0,31.4,24.5,15.0,0000.0,0005.71,0004.31,0004.19
2022-11-04 09:28:00,,0822.4,5.01,0.00,22.6,21.0,00.0,31.4,24.5,15.0,0000.0,0005.76,0004.33,0004.20
2022-11-04 09:29:00,,0822.4,5.00,0.00,22.6,21.0,00.0,31.4,24.5,15.0,0000.0,0005.79,0004.33,0004.20
2022-11-04 09:30:00,,0822.4,5.00,0.00,22.6,21.0,00.0,31.4,24.5,15.0,0000.0,0005.82,0004.33,0004.19
2022-11-04 09:31:00,,0822.4,5.00,0.00,22.6,21.0,00.0,31.4,24.5,15.0,0000.0,0005.86,0004.34,0004.20
2022-11-04 09:32:00,,0822.4,5.00,0.00,22.6,21.1,00.0,31.4,24.5,15.0,0000.0,0005.83,0004.33,0004.20
2022-11-04 09:33:00,,0822.4,4.99,0.00,22.6,21.4,00.0,31.4,24.5,15.0,0000.0,0005.82,0004.33,0004.20
2022-11-04 09:34:00,,0822.4,5.00,0.00,22.7,22.2,00.0,31.3,24.7,14.9,0000.0,0005.81,0004.33,0004.20
2022-11-04 09:35:00,,0822.4,5.00,0.00,22.8,22.5,00.0,31.4,24.8,14.8,0000.0,0005.73,0004.32,0004.20
2022-11-04 09:36:00,,0822.3,4.99,0.00,22.8,22.2,00.0,31.4,24.8,14.8,0000.0,0005.77,0004.32,0004.20
2022-11-04 09:37:00,,0822.3,5.02,0.00,22.8,22.0,00.0,31.4,24.8,14.8,0000.0,0005.88,0004.35,0004.20
2022-11-04 09:38:00,,0822.3,4.99,0.00,22.8,21.8,00.0,31.4,24.8,14.8,0000.0,0005.96,0004.37,0004.21
2022-11-04 09:39:00,,0822.3,5.00,0.00,22.8,21.7,00.0,31.5,24.8,14.7,0000.0,0006.02,0004.40,0004.24
2022-11-04 09:40:00,,0822.4,5.01,0.00,22.8,21.6,00.0,31.5,24.7,14.7,0000.0,0005.94,0004.41,0004.26
2022-11-04 09:41:00,,0822.4,4.99,0.00,22.8,21.5,00.0,31.5,24.7,14.7,0000.0,0005.88,0004.41,0004.28
2022-11-04 09:42:00,,0822.4,5.00,0.00,22.8,21.5,00.0,31.5,24.7,14.7,0000.0,0005.85,0004.41,0004.29
2022-11-04 09:43:00,,0822.3,5.01,0.00,22.8,21.5,00.0,31.5,24.7,14.7,0000.0,0005.96,0004.43,0004.30
2022-11-04 09:44:00,,0822.3,5.01,0.00,22.8,21.4,00.0,31.5,24.7,14.8,0000.0,0005.94,0004.43,0004.31
2022-11-04 09:45:00,,0822.4,4.98,0.00,22.8,21.4,00.0,31.5,24.7,14.8,0000.0,0005.94,0004.44,0004.32
2022-11-04 09:46:00,,0822.4,5.00,0.00,22.8,21.4,00.0,31.5,24.7,14.8,0000.0,0005.96,0004.44,0004.32
2022-11-04 09:47:00,,0822.4,5.01,0.00,22.8,21.4,00.0,31.5,24.7,14.8,0000.0,0005.97,0004.46,0004.34
2022-11-04 09:48:00,,0822.4,5.00,0.00,22.8,21.4,00.0,31.5,24.7,14.8,0000.0,0005.92,0004.46,0004.36
2022-11-04 09:49:00,,0822.4,5.00,0.00,22.8,21.4,00.0,31.5,24.7,14.8,0000.0,0005.85,0004.46,0004.37
2022-11-04 09:50:00,,0822.4,4.99,0.00,22.8,21.3,00.0,31.5,24.7,14.8,0000.0,0005.86,0004.48,0004.39
2022-11-04 09:51:00,,0822.4,5.00,0.00,22.8,21.4,00.0,31.5,24.7,14.8,0000.0,0005.93,0004.49,0004.40
2022-11-04 09:52:00,,0822.4,5.01,0.00,22.8,21.4,00.0,31.5,24.7,14.8,0000.0,0006.03,0004.51,0004.41
2022-11-04 09:53:00,,0822.4,5.00,0.00,22.8,21.4,00.0,31.5,24.7,14.8,0000.0,0006.13,0004.54,0004.42
2022-11-04 09:54:00,,0822.4,4.99,0.00,22.7,21.3,00.0,31.5,24.7,14.8,0000.0,0006.04,0004.55,0004.44
2022-11-04 09:55:00,,0822.4,5.00,0.00,22.7,21.3,00.0,31.5,24.6,14.9,0000.0,0006.08,0004.57,0004.45
2022-11-04 09:56:00,,0822.4,5.01,0.00,22.7,21.3,00.0,31.5,24.7,14.9,0000.0,0006.21,0004.60,0004.47
2022-11-04 09:57:00,,0822.4,5.01,0.00,22.7,21.3,00.0,31.5,24.6,14.8,0000.0,0006.22,0004.61,0004.49
2022-11-04 09:58:00,,0822.4,5.00,0.00,22.7,21.3,00.0,31.5,24.6,14.9,0000.0,0006.18,0004.62,0004.50
2022-11-04 09:59:00,,0822.4,5.00,0.00,22.7,21.3,00.0,31.5,24.6,14.9,0000.0,0006.14,0004.61,0004.50
